Regional Weather Roundup
Issued by NWS

Home | Current Version | Previous Version | Text Only | Print | Product List | Glossary On
Versions: 1 2 3 4 5 6 7 8 9 10 11 12 13 14 15 16 17 18 19 20 21 22 23 24 25 26 27
000
ASUS42 KFFC 252003
RWRGA
WEATHER ROUNDUP FOR GEORGIA
NATIONAL WEATHER SERVICE PEACHTREE CITY GA
400 PM EDT SAT OCT 25 2014

NOTE: "FAIR" INDICATES FEW OR NO CLOUDS BELOW 12,000 FEET WITH NO
SIGNIFICANT WEATHER AND/OR OBSTRUCTIONS TO VISIBILITY.

* = USE WITH CAUTION. THE STATIONS MARKED WITH AN ASTERISK MAY NOT
REPORT WEATHER SUCH AS PRECIPITATION, FOG, OR THUNDER AND ARE NOT
QUALITY CONTROLLED BY NWS.

THE REMARK "TC" DENOTES TEMPERATURE READING IN DEGREES CELSIUS.

GAZ001>058-252100-
NORTH GEORGIA

CITY           SKY/WX    TMP DP  RH WIND       PRES   REMARKS
ATLANTA        SUNNY     76  44  32 NW9       30.01F
ATHENS         SUNNY     75  44  33 VRB3      29.99F
CHAMBLEE       SUNNY     75  45  34 W7        30.01F
PEACHTREE CITY SUNNY     77  44  30 N8        30.02F
ROME           SUNNY     76  51  41 NW7       30.02F
WEST ATLANTA   SUNNY     74  47  38 NW9       30.01F
GAINESVILLE    SUNNY     74  38  27 VRB6      30.01F
CARTERSVILLE   SUNNY     75  45  34 VRB5      30.03F


CITY           SKY/WX    TMP DP  RH WIND       PRES   REMARKS
DALTON*        SUNNY     72  50  46 NW8       30.03F
LAWRENCEVILLE* SUNNY     75  36  23 NW6       30.00F
MARIETTA       SUNNY     74  47  38 NW8       30.02F
KENNESAW*      SUNNY     72  45  37 NW9       30.04F
$$

GAZ059>098-102>109-252100-
CENTRAL GEORGIA

CITY           SKY/WX    TMP DP  RH WIND       PRES   REMARKS
AUGUSTA-BUSH   SUNNY     77  37  23 N6        29.96F
AUGUSTA-DANIEL SUNNY     78  40  25 NE6       29.98F
COLUMBUS       SUNNY     78  44  29 N8        30.01F
MACON          SUNNY     77  43  29 NW8       30.00S
ROBINS AFB     SUNNY     76  47  35 N2        29.99F


CITY           SKY/WX    TMP DP  RH WIND       PRES   REMARKS
LAGRANGE*      SUNNY     80  52  38 NW10      30.02F
SYLVANIA*      SUNNY     82  51  34 NW6       29.98S
MILLEDGEVILLE* SUNNY     73  54  49 CALM      29.99F
$$

GAZ099>101-110>166-252100-
SOUTH GEORGIA

CITY           SKY/WX    TMP DP  RH WIND       PRES   REMARKS
SAVANNAH       SUNNY     77  45  32 CALM      29.97F
VALDOSTA       SUNNY     79  36  21 VRB6      29.97F
ALMA           SUNNY     78  45  30 VRB3      29.96F
ST SIMONS      SUNNY     73  53  49 VRB7      29.97F
FT STEWART     SUNNY     76  44  32 CALM      29.95F
ALBANY         SUNNY     78  44  29 NW6       30.01F
HUNTER AFB     SUNNY     75  47  36 VRB5      29.95F
MOODY AFB      SUNNY     79  42  27 NW5       29.97F
BRUNSWICK      SUNNY     77  41  27 W5        29.98S


CITY           SKY/WX    TMP DP  RH WIND       PRES   REMARKS
BAINBRIDGE*    SUNNY     81  43  26 NW8       29.99F
MOULTRIE*      SUNNY     77  36  22 N3        30.00S
VIDALIA*       SUNNY     79  46  31 N5        29.97F
WAYCROSS*      SUNNY     81  51  34 N5        29.97S
DOUGLAS*       SUNNY     81  43  26 W3        29.98F
$$



USA.gov is the U.S. government's official web portal to all federal, state and local government web resources and services.